Date String (YYYY-MM-DD hh:mm:ss) UTC,Instrument flags,Ambient pressure (hPa),Sample flow (lpm),Bypass flow (lpm),Sample temperature (°C),Ambient temperature (°C),ASC tube jacket temperature (°C),LED temperature (°C),Box temperature (°C),Sample RH (%),Span deviation,Mass concentration (μg/m³),Mass concentration (μg/m³),Mass concentration (μg/m³)
DateTimeUTC,F1_M11,P_M11,Q1_M11,Q2_M11,T1_M11,T2_M11,T3_M11,T4_M11,T5_M11,U1_M11,ZSPAN_M11,X0_M11,X2_M11,X1_M11
2023-04-09 02:00:00,,0830.7,5.00,0.00,26.1,24.3,00.0,34.6,27.7,10.8,0000.0,0007.50,0003.29,0002.03
2023-04-09 02:01:00,,0830.7,5.00,0.00,26.1,24.4,00.0,34.6,27.7,10.8,0000.0,0007.54,0003.31,0002.03
2023-04-09 02:02:00,,0830.8,5.00,0.00,26.1,24.4,00.0,34.6,27.7,10.9,0000.0,0007.40,0003.23,0001.96
2023-04-09 02:03:00,,0830.8,5.01,0.00,26.2,24.5,00.0,34.6,27.7,10.9,0000.0,0007.37,0003.17,0001.83
2023-04-09 02:04:00,,0830.8,5.00,0.00,26.2,24.5,00.0,34.6,27.8,10.9,0000.0,0006.85,0003.05,0001.74
2023-04-09 02:05:00,,0830.8,5.00,0.00,26.2,24.5,00.0,34.6,27.8,11.0,0000.0,0006.16,0002.97,0001.70
2023-04-09 02:06:00,,0830.9,5.00,0.00,26.2,24.5,00.0,34.6,27.8,10.9,0000.0,0006.17,0002.91,0001.66
2023-04-09 02:07:00,,0830.9,5.00,0.00,26.2,24.6,00.0,34.6,27.8,10.9,0000.0,0006.07,0002.91,0001.63
2023-04-09 02:08:00,,0830.9,4.99,0.00,26.2,24.6,00.0,34.6,27.8,11.0,0000.0,0006.97,0002.95,0001.62
2023-04-09 02:09:00,,0830.9,5.00,0.00,26.2,24.6,00.0,34.6,27.8,10.9,0000.0,0007.45,0003.00,0001.61
2023-04-09 02:10:00,,0830.9,4.99,0.00,26.2,24.6,00.0,34.5,27.8,11.0,0000.0,0007.65,0003.10,0001.61
2023-04-09 02:11:00,,0831.0,5.01,0.00,26.2,24.6,00.0,34.5,27.8,10.9,0000.0,0008.09,0003.10,0001.61
2023-04-09 02:12:00,,0830.9,4.99,0.00,26.2,24.6,00.0,34.5,27.8,11.0,0000.0,0008.16,0003.11,0001.61
2023-04-09 02:13:00,,0830.9,5.00,0.00,26.2,24.6,00.0,34.5,27.8,11.0,0000.0,0008.57,0003.15,0001.62
2023-04-09 02:14:00,,0830.9,5.00,0.00,26.2,24.6,00.0,34.5,27.8,11.2,0000.0,0009.41,0003.17,0001.63
2023-04-09 02:15:00,,0830.9,5.00,0.00,26.2,24.6,00.0,34.5,27.8,11.2,0000.0,0009.40,0003.16,0001.63
2023-04-09 02:16:00,,0830.9,5.00,0.00,26.2,24.6,00.0,34.5,27.8,10.9,0000.0,0009.52,0003.16,0001.63
2023-04-09 02:17:00,,0830.9,5.00,0.00,26.2,24.6,00.0,34.5,27.8,11.0,0000.0,0009.97,0003.16,0001.65
2023-04-09 02:18:00,,0830.9,5.00,0.00,26.2,24.6,00.0,34.5,27.8,10.9,0000.0,0009.95,0003.13,0001.64
2023-04-09 02:19:00,,0831.0,5.00,0.00,26.2,24.6,00.0,34.5,27.7,10.9,0000.0,0009.46,0003.13,0001.63
2023-04-09 02:20:00,,0831.1,5.01,0.00,26.2,24.6,00.0,34.5,27.8,11.1,0000.0,0009.29,0003.14,0001.63
2023-04-09 02:21:00,,0831.1,5.00,0.00,26.2,24.6,00.0,34.5,27.7,11.3,0000.0,0009.22,0003.13,0001.63
2023-04-09 02:22:00,,0831.2,4.99,0.00,26.2,24.6,00.0,34.5,27.7,11.4,0000.0,0008.86,0003.15,0001.63
2023-04-09 02:23:00,,0831.2,5.00,0.00,26.2,24.6,00.0,34.5,27.8,11.3,0000.0,0009.07,0003.14,0001.62
2023-04-09 02:24:00,,0831.1,5.01,0.00,26.2,24.6,00.0,34.5,27.8,11.3,0000.0,0009.37,0003.12,0001.61
2023-04-09 02:25:00,,0831.2,5.00,0.00,26.2,24.6,00.0,34.5,27.8,11.2,0000.0,0008.81,0003.15,0001.61
2023-04-09 02:26:00,,0831.1,5.00,0.00,26.2,24.6,00.0,34.5,27.8,11.1,0000.0,0008.69,0003.16,0001.60
2023-04-09 02:27:00,,0831.1,5.00,0.00,26.1,24.6,00.0,34.5,27.8,10.9,0000.0,0008.70,0003.18,0001.59
2023-04-09 02:28:00,,0831.2,5.00,0.00,26.1,24.6,00.0,34.5,27.8,11.1,0000.0,0008.20,0003.19,0001.58
2023-04-09 02:29:00,,0831.2,5.00,0.00,26.1,24.6,00.0,34.5,27.8,11.3,0000.0,0008.26,0003.20,0001.57
2023-04-09 02:30:00,,0831.2,5.00,0.00,26.1,24.6,00.0,34.5,27.8,11.4,0000.0,0008.64,0003.21,0001.57
2023-04-09 02:31:00,,0831.2,5.00,0.00,26.1,24.6,00.0,34.5,27.8,11.4,0000.0,0008.65,0003.24,0001.59
2023-04-09 02:32:00,,0831.2,5.00,0.00,26.1,24.6,00.0,34.5,27.7,11.5,0000.0,0008.64,0003.25,0001.61
2023-04-09 02:33:00,,0831.2,5.01,0.00,26.2,24.6,00.0,34.5,27.7,11.4,0000.0,0008.50,0003.22,0001.61
2023-04-09 02:34:00,,0831.3,5.00,0.00,26.2,24.6,00.0,34.5,27.8,11.4,0000.0,0008.19,0003.23,0001.61
2023-04-09 02:35:00,,0831.3,4.99,0.00,26.2,24.6,00.0,34.5,27.8,11.7,0000.0,0008.24,0003.27,0001.62
2023-04-09 02:36:00,,0831.3,5.00,0.00,26.2,24.6,00.0,34.5,27.8,11.6,0000.0,0008.60,0003.26,0001.62
2023-04-09 02:37:00,,0831.3,5.00,0.00,26.2,24.6,00.0,34.5,27.8,11.5,0000.0,0008.53,0003.24,0001.63
2023-04-09 02:38:00,,0831.3,4.99,0.00,26.2,24.6,00.0,34.5,27.7,11.5,0000.0,0008.46,0003.23,0001.64
2023-04-09 02:39:00,,0831.3,4.99,0.00,26.2,24.6,00.0,34.5,27.7,11.5,0000.0,0008.94,0003.23,0001.63
2023-04-09 02:40:00,,0831.3,5.00,0.00,26.2,24.6,00.0,34.5,27.7,11.2,0000.0,0008.99,0003.19,0001.64
2023-04-09 02:41:00,,0831.3,5.00,0.00,26.2,24.6,00.0,34.5,27.7,11.3,0000.0,0008.79,0003.14,0001.64
2023-04-09 02:42:00,,0831.3,4.99,0.00,26.2,24.6,00.0,34.5,27.7,11.3,0000.0,0009.24,0003.09,0001.63
2023-04-09 02:43:00,,0831.4,5.00,0.00,26.2,24.6,00.0,34.5,27.8,11.3,0000.0,0009.10,0002.94,0001.60
2023-04-09 02:44:00,,0831.4,5.00,0.00,26.2,24.6,00.0,34.5,27.7,11.3,0000.0,0009.20,0002.89,0001.58
2023-04-09 02:45:00,,0831.4,5.01,0.00,26.2,24.6,00.0,34.5,27.8,11.1,0000.0,0009.20,0002.85,0001.57
2023-04-09 02:46:00,,0831.4,5.00,0.00,26.2,24.6,00.0,34.5,27.8,11.3,0000.0,0008.73,0002.77,0001.56
2023-04-09 02:47:00,,0831.4,5.00,0.00,26.2,24.6,00.0,34.5,27.7,11.6,0000.0,0008.02,0002.70,0001.56
2023-04-09 02:48:00,,0831.4,5.00,0.00,26.2,24.5,00.0,34.5,27.8,11.5,0000.0,0008.09,0002.73,0001.56
2023-04-09 02:49:00,,0831.5,5.00,0.00,26.1,24.5,00.0,34.5,27.7,11.3,0000.0,0008.24,0002.83,0001.56
2023-04-09 02:50:00,,0831.4,5.00,0.00,26.1,24.5,00.0,34.5,27.7,11.4,0000.0,0007.94,0002.89,0001.57
2023-04-09 02:51:00,,0831.4,5.00,0.00,26.1,24.5,00.0,34.5,27.7,11.5,0000.0,0007.77,0002.98,0001.57
2023-04-09 02:52:00,,0831.4,5.00,0.00,26.1,24.5,00.0,34.5,27.7,11.5,0000.0,0007.60,0003.02,0001.57
2023-04-09 02:53:00,,0831.5,5.00,0.00,26.1,24.5,00.0,34.5,27.7,11.5,0000.0,0007.11,0003.06,0001.57
2023-04-09 02:54:00,,0831.5,4.99,0.00,26.1,24.5,00.0,34.5,27.7,11.5,0000.0,0007.02,0003.09,0001.58
2023-04-09 02:55:00,,0831.5,5.00,0.00,26.1,24.5,00.0,34.5,27.7,11.6,0000.0,0007.17,0003.12,0001.58
2023-04-09 02:56:00,,0831.6,5.00,0.00,26.1,24.5,00.0,34.5,27.7,11.6,0000.0,0007.56,0003.14,0001.58
2023-04-09 02:57:00,,0831.6,5.00,0.00,26.1,24.6,00.0,34.5,27.7,11.6,0000.0,0007.94,0003.15,0001.59
2023-04-09 02:58:00,,0831.6,5.00,0.00,26.1,24.5,00.0,34.5,27.7,11.5,0000.0,0008.32,0003.21,0001.59
2023-04-09 02:59:00,,0831.6,5.01,0.00,26.1,24.5,00.0,34.5,27.7,11.8,0000.0,0008.77,0003.22,0001.60
